Regional Weather Roundup
Issued by NWS Charleston, SC

Current Version | Previous Version | Text Only | Print | Product List | Glossary Off
Versions: 1 2 3 4 5 6 7 8 9 10 11 12 13 14 15 16 17 18 19 20 21 22 23 24 25 26 27 28 29 30 31 32 33 34 35 36 37 38 39 40 41 42 43 44 45 46 47 48 49 50

695
ASUS42 KCHS 252012
RWRCHS

REGIONAL WEATHER ROUNDUP
NATIONAL WEATHER SERVICE CHARLESTON SC
400 PM EDT SAT MAR 25 2017

NOTE: "FAIR" INDICATES FEW OR NO CLOUDS BELOW 12,000 FEET WITH NO
SIGNIFICANT WEATHER AND/OR OBSTRUCTIONS TO VISIBILITY.

NOT ALL STATIONS ARE QUALITY CONTROLLED. USE DATA WITH CAUTION...
ESPECIALLY DEWPOINT OBSERVATIONS.

SCZ027-030-031-034>040-042>050-252100-
...SOUTHEAST SOUTH CAROLINA...

CITY           SKY/WX    TMP DP  RH WIND       PRES   REMARKS
N CHARLESTON   CLOUDY    73  52  47 SE14      30.26F
WATERFRONT PRK   N/A     65  59  81 SE7       30.26F
JOHNS ISLAND   CLOUDY    70  59  68 E10       30.27F
PINOPOLIS        N/A     73  54  49 VRB3      30.18F
MONCKS CORNER  CLOUDY    72  50  46 SE7       30.25F
SUMMERVILLE    MOCLDY    73  50  43 S6        30.26S
BEAUFORT MCAS  CLOUDY    73  58  59 S8        30.25F
BEAUFORT ARPT  CLOUDY    72  54  53 SE8       30.25F
HILTON HEAD IS MOSUNNY   72  55  56 SE8       30.26F
WALTERBORO     MOCLDY    75  52  43 SE13G18   30.25F
ALLENDALE      MOCLDY    77  54  44 SE9G17    30.21F

...SOUTHERN MIDLANDS AND PEE DEE...

CITY           SKY/WX    TMP DP  RH WIND       PRES   REMARKS
GEORGETOWN     CLOUDY    70  52  52 SE10      30.28F
KINGSTREE      CLOUDY    77  46  33 SE8       30.24F
ORANGEBURG     PTSUNNY   76  52  43 SE10      30.23F
BARNWELL       MOCLDY    77  52  41 S6        30.21F
AIKEN          MOCLDY    72  50  46 SE7       30.25F
MANNING        MOCLDY    73  50  43 S8        30.25S
COLUMBIA       PTSUNNY   77  49  37 S10       30.21F
SUMTER         PTSUNNY   78  49  36 S15       30.21F
FLORENCE       PTSUNNY   77  49  37 S12G18    30.23F
MYRTLE BEACH   MOSUNNY   72  54  53 S16       30.29F
N MYRTLE BEACH MOSUNNY   70  53  54 S7        30.27F

$$

GAZ063-065-086>088-099>101-113>116-118-119-134>141-150-252100-
...SOUTHEAST GEORGIA...

CITY           SKY/WX    TMP DP  RH WIND       PRES   REMARKS
SAVANNAH ARPT  PTSUNNY   77  51  40 SE13G22   30.23F
HUNTER AAF     PTSUNNY   76  58  53 SE13      30.21F
FORT STEWART   PTSUNNY   76  53  43 SE13      30.20F
STATESBORO     CLOUDY    77  55  47 SE7       30.21F
SYLVANIA       CLOUDY   N/A N/A N/A SE6       30.22F
CLAXTON        FAIR      76  56  50 E8        30.21F

...CSRA...CENTRAL AND FAR SOUTHEAST GEORGIA...

CITY           SKY/WX    TMP DP  RH WIND       PRES   REMARKS
THOMSON        CLOUDY    75  51  42 SW8       30.24F
AUGUSTA-BUSH   CLOUDY    78  51  38 SE9       30.19F
AUGUSTA-DANIEL PTSUNNY   77  49  37 S9        30.21F
SWAINSBORO     CLOUDY    77  52  41 SE12      30.20F
VIDALIA        PTSUNNY   77  54  44 SE7       30.19F
EASTMAN        FAIR      81  31  16 S10       30.19F
HAZLEHURST     FAIR      79  55  43 SE9       30.17F
ALMA           PTSUNNY   79  54  41 SE13      30.18F
WAYCROSS       PTSUNNY   81  60  48 S8        30.18F
JESUP          FAIR      77  50  38 SE7       30.21F
BAXLEY         PTSUNNY   79  59  50 SE8       30.19F
BRUNSWICK      SUNNY     77  59  53 SE9G16    30.23F
SAINT SIMONS   SUNNY     74  57  55 E12       30.22F

$$

SCZ027-028-034-036>038-045-046-048>050-GAZ119-141-252100-
...LAKE AND SUPPLEMENTAL COASTAL OBSERVATIONS...

STATION/POSITION TIME  TEMP    WIND        PRES    WAVE   SWELL
                       AIR SEA DIR/SP/G            HT/PER HT/PER/DIR
                 (UTC) (F)     (DEG/KT/KT) (MB)    (FT/S) (FT/S/D)
WINYAH BAY       1845   70     150/  9     1026.0
LAKE MURRAY      1920   76      CALM  /  2 1023.0
ACE BASIN NERRS  NOT AVBL
FORT PULASKI     1942   70 62  140/  9/ 13 1024.7F
SAPELO ISLAND    1900   77     110/  9     1024.0

$$

ANZ835-935-AMZ111-154-330-350-352-354-370-450-454-472-252100-
...C-MAN AND BUOY OBSERVATIONS...

STATION/POSITION TIME  TEMP    WIND        PRES    WAVE   SWELL
                       AIR SEA DIR/SP/G            HT/PER HT/PER/DIR
                 (UTC) (F)     (DEG/KT/KT) (MB)    (FT/S) (FT/S/D)
BUOY 41004       1950   70 72  140/ 14/ 17 1024.6F   4/ 8   3/130/ 8
BUOY 41008       1850   66 63  100/  8/ 10 1024.5    4/ 7   3/120/ 7
FOLLY BEACH CMAN 1900   64     100/  8/  8 1026.1F
CAPERS NEARSHORE 1908   64      80/  4/  8 1025.5F
FRIPP NEARSHORE  1908   64 61  120/  8/ 10 1024.7F


STATION/POSITION TIME  TEMP    WIND        PRES    WAVE   SWELL
                       AIR SEA DIR/SP/G            HT/PER HT/PER/DIR
                 (UTC) (F)     (DEG/KT/KT) (MB)    (FT/S) (FT/S/D)
5E ST. MARYS GA  1930      66                N/A     4/ 8
FRYING PAN BUOY  1950   70 73  180/ 14/ 16 1025.3F   3/ 8   3/150/ 8
BUOY 41025       1950   71 77  230/ 16/ 17 1025.4F   3/ 5   2/150/ 7
CAPE LOOKOUT NC  1900   70     220/  8/ 10 1025.9F
BUOY 41002       1950   66 73   90/ 12/ 14 1026.7F   5/ 7   5/120/ 7
BUOY 41010       NOT AVBL
ST AUGUSTINE FL  2000   68 69  110/ 11/ 13 1023.9F


$$




USA.gov is the U.S. government's official web portal to all federal, state and local government web resources and services.